Location: Centerville
(32.8776°N, 96.6203°W)
Time: 11:10:24
(UTC+00:00)

Cosmos 2237 - Pass Details

Date: 26 October 2021
Orbit: 845 x 856 km, 70.8° (Epoch: 08 December)

Event Time Altitude Azimuth Distance (km) Brightness Sun altitude
Rises 23:55:14 0° 186° (S) 3,398 7.6 -3.6°
Reaches altitude 10° 23:57:44 10° 181° (S) 2,468 6.8 -4.1°
Maximum altitude 00:03:13 53° 106° (ESE) 1,043 4.4 -5.2°
Drops below altitude 10° 00:08:45 10° 31° (NNE) 2,488 6.3 -6.4°
Sets 00:11:15 0° 27° (NNE) 3,428 7.0 -6.9°
